GFSNIL_sfc_rhum_114.txt.gz
RH
95 94 94 96 99 97 97 99 99 99 99 99 99 99 99 99 99 99 99 99 99 98
98 97 99 99 99 99 99 99 98 99 98 98 98 98 98 99 99 99 99 98 99 98
98 99 99 99 99 98 99 99 99 99 99 99 98 98 99 99 98 99 98 98 99 98
86 87 87 90 92 96 96 96 97 98 99 99 98 98 99 99 98 98 97 98 98 97
75 74 76 76 78 80 88 89 88 88 87 89 92 94 97 98 98 99 99 99 99 98
82 82 85 85 83 82 83 84 85 86 88 87 89 91 92 93 95 95 97 97 98 98
92 93 92 89 86 88 88 89 89 90 88 88 87 87 88 90 92 93 94 95 96 95
90 90 88 89 90 90 90 93 94 93 92 92 87 83 93 92 93 93 93 93 94 94
92 88 93 94 94 93 91 91 92 92 92 92 84 86 88 91 95 94 94 94 92 93
93 94 94 93 93 93 94 92 92 92 92 92 92 84 84 89 96 96 96 95 95 93
92 94 94 94 96 96 95 96 95 95 94 93 84 82 82 85 95 97 96 96 94 90
92 93 92 94 96 95 95 95 96 96 95 94 92 84 81 86 94 96 95 94 94 89
92 93 92 94 94 92 91 91 90 89 90 82 85 79 72 72 75 81 81 78 76 79
88 88 90 92 93 94 95 93 93 89 86 88 75 73 70 70 64 73 74 74 80 78

GFSNIL_sfc_rhum_117.txt.gz
RH
90 93 91 89 93 91 93 96 94 97 99 99 99 99 98 98 99 99 99 97 96 95
95 93 94 94 94 98 98 99 98 98 99 99 99 99 99 99 98 99 97 96 93 93
96 96 97 97 98 98 99 99 99 99 99 98 98 99 99 99 99 99 99 99 98 93
92 89 86 91 93 94 93 93 93 95 96 97 98 98 99 99 99 99 99 99 98 98
89 88 88 86 88 85 88 87 86 84 81 85 90 92 93 94 93 91 94 96 96 97
86 83 84 83 80 76 74 76 74 73 74 74 76 74 76 77 77 79 80 82 84 83
79 80 77 75 75 76 76 76 76 77 78 79 76 78 78 78 77 77 76 78 79 78
80 78 78 79 77 74 75 75 76 72 74 75 74 81 84 83 81 81 80 79 78 79
80 79 80 80 81 81 81 78 77 79 78 78 70 84 82 82 81 81 82 82 79 80
81 82 83 83 83 85 85 84 85 85 82 80 78 81 80 83 83 88 86 86 85 83
79 80 80 82 84 82 79 84 83 82 82 79 74 77 75 76 82 84 82 81 76 76
81 80 80 83 85 83 80 81 83 80 80 82 75 72 70 67 64 64 67 64 64 70
78 80 80 83 84 85 85 84 80 73 75 74 68 70 69 66 60 60 60 57 58 65
75 78 78 81 83 83 80 76 73 71 68 66 63 63 70 71 67 68 67 68 63 60

GFSNIL_sfc_rhum_120.txt.gz
RH
80 84 81 82 78 79 83 83 77 82 87 86 87 90 91 95 92 96 96 95 93 86
79 79 81 79 74 76 74 74 80 85 96 96 96 96 97 97 94 96 98 99 99 99
91 92 92 90 90 93 97 97 97 99 99 99 98 98 97 98 99 99 99 99 99 98
94 94 93 94 95 95 94 93 92 93 94 93 93 96 98 99 99 99 99 98 99 98
94 92 91 92 92 90 90 90 87 83 82 88 90 86 89 89 90 90 93 93 92 90
86 86 89 85 80 74 77 78 72 72 73 68 70 71 72 72 74 78 79 74 73 68
77 63 65 68 61 58 57 57 58 59 60 61 63 65 64 64 66 65 66 69 69 67
60 61 59 57 59 58 56 56 55 53 54 60 66 70 66 63 61 62 60 60 60 64
57 57 60 60 60 61 63 62 63 64 64 68 64 79 80 71 63 63 63 65 62 60
54 56 61 58 56 58 58 60 61 61 60 63 65 73 73 75 66 70 68 67 64 59
53 56 57 57 59 61 60 64 60 59 58 58 63 71 70 64 55 56 56 55 53 52
54 53 53 58 62 63 61 63 58 55 61 61 55 69 69 60 51 48 50 48 48 52
56 53 55 58 61 64 61 60 55 56 58 63 50 70 69 63 51 54 56 51 50 59
54 56 55 58 61 60 55 51 48 47 46 48 54 55 67 66 54 60 57 56 53 50

GFSNIL_sfc_rhum_123.txt.gz
RH
59 66 70 71 71 74 76 82 79 78 78 79 81 85 90 94 94 92 92 91 87 88
68 72 78 76 74 80 77 79 79 75 72 76 86 85 93 97 99 99 98 97 94 97
87 86 85 88 89 90 94 91 91 93 90 85 95 97 97 98 94 96 95 97 99 99
92 91 92 92 96 94 93 92 89 92 94 95 94 95 96 96 98 99 98 99 99 99
92 91 94 93 93 92 93 93 93 90 88 88 91 90 91 93 91 91 92 90 90 90
93 94 94 94 91 89 90 91 90 85 83 80 78 78 80 76 78 82 85 88 87 84
80 85 88 82 78 85 76 70 65 65 70 71 62 61 60 61 63 64 65 69 70 70
69 61 57 67 62 55 56 52 51 54 60 63 68 70 71 61 61 61 60 63 60 67
53 57 55 54 54 57 61 59 57 60 65 71 65 75 76 72 64 62 64 66 63 59
47 51 52 50 53 58 57 57 62 59 62 65 69 72 69 67 62 66 63 62 59 52
49 51 52 55 58 56 60 62 56 55 57 62 63 70 71 65 59 60 57 53 50 51
48 48 50 56 62 61 59 60 58 58 60 58 61 71 70 62 50 48 52 49 49 53
51 49 53 56 61 60 56 52 53 53 55 61 49 70 67 65 48 51 53 48 47 58
50 52 51 55 57 55 49 46 44 44 44 45 54 60 66 67 55 58 54 52 50 49

GFSNIL_sfc_rhum_126.txt.gz
RH
67 75 81 84 90 93 94 95 92 92 92 93 92 93 95 98 97 95 97 95 97 96
90 86 81 82 80 76 91 81 80 88 91 90 90 93 96 97 96 98 97 97 96 97
95 95 96 96 90 94 97 96 95 94 96 96 95 94 97 98 97 98 98 99 98 97
94 93 93 95 96 96 94 92 92 92 92 93 93 95 95 96 98 98 98 98 99 98
92 91 92 94 93 93 94 92 91 89 89 93 94 94 93 95 96 94 94 94 93 92
93 93 94 94 94 89 91 93 92 91 92 90 92 93 92 90 92 93 88 87 87 86
92 91 93 93 94 93 87 87 90 91 90 89 84 84 71 66 70 71 72 75 80 78
87 87 92 92 87 88 80 69 70 71 72 79 77 76 81 70 71 73 75 75 71 76
64 61 62 62 66 70 76 75 73 78 79 79 69 72 75 74 76 74 76 78 73 68
59 61 64 65 67 68 70 71 72 75 78 79 76 72 69 68 70 75 73 70 69 58
61 63 65 70 72 73 73 73 67 73 77 78 72 72 72 68 67 69 66 65 65 67
60 64 67 75 78 78 79 75 73 75 72 81 84 71 70 73 66 63 66 60 62 64
62 65 72 76 77 73 71 67 70 67 69 57 84 67 69 72 70 69 67 63 58 59
65 67 71 76 76 73 69 64 63 59 62 63 70 80 66 68 77 77 77 70 66 64

GFSNIL_sfc_rhum_129.txt.gz
RH
71 77 78 82 92 93 96 96 94 96 96 97 98 96 96 96 96 98 98 96 96 94
98 98 98 93 89 88 91 92 94 92 86 94 96 96 96 98 99 99 96 96 97 94
97 97 98 98 98 96 96 96 97 95 94 92 92 95 98 98 97 98 97 98 99 98
93 93 93 95 96 96 94 93 93 94 93 93 92 93 94 96 96 99 98 99 99 98
92 92 94 94 94 94 95 92 90 88 90 91 93 92 92 95 95 94 96 97 97 96
94 94 95 94 92 89 92 92 90 87 88 88 90 90 95 95 94 95 95 95 94 93
95 95 95 95 93 93 89 89 90 89 88 88 86 86 84 85 91 91 88 85 79 78
86 90 90 91 92 90 90 85 85 81 80 84 86 88 84 74 74 76 78 78 74 81
65 65 66 65 71 71 74 75 82 82 80 80 70 73 73 74 75 74 74 74 71 76
65 68 72 71 71 75 78 74 80 82 78 81 78 74 71 67 74 76 74 73 71 69
66 70 73 76 77 79 76 74 77 82 78 82 75 73 73 67 72 75 72 71 70 72
65 71 76 80 83 85 78 79 82 77 81 84 86 72 72 74 70 68 71 65 66 72
67 72 78 82 81 81 79 74 78 75 72 72 85 67 69 78 75 79 76 70 65 62
70 74 76 82 83 80 76 72 72 68 73 72 82 80 64 67 82 86 87 84 79 75